[[{"header":{"parameterUnit":"m.s-1","parameterCategory":1,"la1":30.2992,"la2":30.254,"lo1":-89.0895,"lo2":-89.0443,"dy":0.0025,"dx":0.0025,"nx":19,"ny":19,"refTime":"2026-03-16T09:00:00:Z","depth":0,"parameterNumber":2,"parameterNumberName":"U-component_of_WINDS"},"data":[0,0,0,1.6638,1.6639,1.6685,1.6685,1.6741,1.6742,0,0,0,0,0,0,0,0,0,0,0,1.6623,1.6623,1.6638,1.6639,1.6685,1.6685,1.6741,1.6742,0,0,0,0,0,0,0,0,0,0,0,1.6623,1.6623,1.6623,1.6639,1.6685,1.6685,1.6741,1.6707,0,0,0,0,0,0,0,0,0,0,1.6664,1.6647,1.6623,1.6623,1.664,1.6685,1.6685,1.6706,1.671,1.6719,0,1.6727,0,1.6735,1.6745,1.6745,0,0,0,1.6641,1.6644,1.6658,1.6623,1.664,1.6685,1.6665,1.6708,1.6712,1.6724,1.6728,1.673,1.6736,1.6745,1.6746,1.6796,1.6797,0,0,1.6638,1.663,1.6655,1.6661,1.6653,1.6663,1.6666,1.671,1.6714,1.6728,1.6731,1.6737,1.6746,1.6746,1.6796,1.6796,0,0,0,1.663,1.6628,1.6641,1.6658,1.6667,1.6665,1.6668,1.6712,1.6717,1.6732,1.6738,1.6746,1.6747,1.6796,1.6796,1.6796,0,0,0,1.6629,1.6623,1.664,1.6635,1.6666,1.669,1.6668,1.6714,1.6719,1.6737,1.6746,1.6747,1.6796,1.6796,1.6795,1.6796,0,0,0,1.662,1.6622,1.6628,1.6635,1.6654,1.6689,1.6697,1.6715,1.6723,1.6745,1.6747,1.6796,1.6796,1.6795,1.6796,1.6807,0,0,0,1.6609,1.6626,1.6628,1.665,1.6653,1.6689,1.6697,1.6723,1.6743,1.6746,1.6796,1.6796,1.6795,1.6795,1.6806,1.6814,1.6817,0,0,1.6626,1.6628,1.6642,1.6644,1.6677,1.6682,1.6715,1.6741,1.6751,1.6781,1.6782,1.6795,1.6796,1.6807,1.6836,1.6837,0,0,0,1.6644,1.6654,1.6665,1.6683,1.6703,1.6721,1.6743,1.6753,1.6779,1.6765,1.6803,1.6804,1.6811,1.6814,1.6816,1.6823,1.6798,1.6798,1.6798,1.6655,1.6668,1.6691,1.671,1.6728,1.6751,1.6767,1.6784,1.6791,1.6801,1.6809,1.6825,1.6829,1.683,1.6837,1.6815,1.6815,1.6815,1.6815,1.668,1.6696,1.6707,1.6733,1.6747,1.6769,1.6794,1.6798,1.6822,1.6819,1.6826,1.6821,1.6832,1.6838,1.6815,1.6815,1.6815,1.6815,1.6815,1.6688,1.6697,1.671,1.6738,1.6759,1.6778,1.6801,1.6813,1.6824,1.6831,1.6841,1.6841,1.6842,1.6835,1.6835,1.6835,1.6836,1.6836,1.6836,1.669,1.6704,1.6721,1.6746,1.676,1.678,1.6805,1.682,1.6839,1.6846,1.6846,1.6852,1.6831,1.6825,1.6836,1.6836,1.6836,1.6836,1.6836,1.6709,1.6707,1.6733,1.6747,1.6778,1.6799,1.6815,1.6843,1.6857,1.6868,1.6874,1.6857,1.6859,1.6858,1.6853,1.6871,1.6871,1.6871,1.6871,1.6715,1.6718,1.6748,1.677,1.6793,1.681,1.6841,1.6862,1.6883,1.6892,1.6892,1.6887,1.6885,1.6889,1.6887,1.6883,1.6908,1.6908,1.6908,1.6727,1.6733,1.6756,1.6776,1.6802,1.6824,1.6853,1.6879,1.6902,1.691,1.69,1.6899,1.6891,1.6887,1.6892,1.6889,1.6881,0,0]},{"header":{"parameterUnit":"m.s-1","parameterCategory":1,"la1":30.2992,"la2":30.254,"lo1":-89.0895,"lo2":-89.0443,"dy":0.0025,"dx":0.0025,"nx":19,"ny":19,"refTime":"2026-03-16T09:00:00:Z","depth":0,"parameterNumber":3,"parameterNumberName":"V-component_of_WINDS"},"data":[0,0,0,-7.8036,-7.8043,-7.8388,-7.8389,-7.8835,-7.8839,0,0,0,0,0,0,0,0,0,0,0,-7.7941,-7.7945,-7.8035,-7.8044,-7.8388,-7.8389,-7.8835,-7.8839,0,0,0,0,0,0,0,0,0,0,0,-7.794,-7.7944,-7.7948,-7.8045,-7.8387,-7.8389,-7.8834,-7.8571,0,0,0,0,0,0,0,0,0,0,-7.8235,-7.8157,-7.7943,-7.7948,-7.8047,-7.8387,-7.8389,-7.8558,-7.8587,-7.8683,0,-7.8774,0,-7.8814,-7.887,-7.8872,0,0,0,-7.8037,-7.8133,-7.8219,-7.7949,-7.805,-7.8387,-7.8231,-7.8574,-7.8607,-7.8722,-7.8781,-7.8797,-7.8822,-7.8873,-7.8875,-7.9461,-7.9464,0,0,-7.8018,-7.8007,-7.8196,-7.8241,-7.8192,-7.822,-7.8241,-7.8594,-7.8656,-7.8782,-7.8807,-7.8829,-7.8876,-7.888,-7.9458,-7.9462,0,0,0,-7.7968,-7.7994,-7.8071,-7.8223,-7.8284,-7.823,-7.8255,-7.864,-7.8666,-7.8812,-7.8834,-7.8879,-7.8884,-7.9455,-7.946,-7.9601,0,0,0,-7.7956,-7.7965,-7.8063,-7.806,-7.8278,-7.8468,-7.8293,-7.8642,-7.8682,-7.8832,-7.8879,-7.8889,-7.9452,-7.9457,-7.959,-7.967,0,0,0,-7.7916,-7.796,-7.8013,-7.8058,-7.8206,-7.8462,-7.8508,-7.8651,-7.8696,-7.8872,-7.889,-7.9449,-7.9456,-7.958,-7.9653,-7.9821,0,0,0,-7.7869,-7.8133,-7.8015,-7.8317,-7.8204,-7.8548,-7.8506,-7.8763,-7.893,-7.8881,-7.9452,-7.9459,-7.9577,-7.9643,-7.981,-7.9959,-8.0021,0,0,-7.8195,-7.8172,-7.835,-7.8255,-7.8618,-7.8496,-7.8879,-7.9042,-7.9066,-7.9327,-7.9341,-7.9594,-7.9652,-7.9818,-8.0369,-8.0418,0,0,0,-7.8449,-7.8578,-7.8676,-7.8837,-7.8969,-7.9088,-7.9193,-7.9253,-7.9475,-7.92,-7.97,-7.9735,-7.9832,-7.9904,-7.9946,-8.003,-7.9492,-7.9491,-7.949,-7.8894,-7.8914,-7.921,-7.9272,-7.9428,-7.9534,-7.9661,-7.9759,-7.9731,-7.9849,-7.9927,-8.0259,-8.0343,-8.0374,-8.0461,-8.0007,-8.0008,-8.0008,-8.0009,-7.9373,-7.9557,-7.9516,-7.9789,-7.9807,-8.0034,-8.0145,-8.0118,-8.0331,-8.0202,-8.0289,-8.0147,-8.0427,-8.0504,-8.0019,-8.0018,-8.0016,-8.0015,-8.0014,-7.9667,-7.9759,-7.9828,-8.0062,-8.0239,-8.029,-8.0496,-8.0504,-8.0513,-8.0599,-8.0681,-8.0679,-8.0677,-8.0638,-8.0639,-8.064,-8.0641,-8.0642,-8.0643,-7.9944,-8.0018,-8.0193,-8.0355,-8.0458,-8.0595,-8.0703,-8.0804,-8.0917,-8.0906,-8.0907,-8.0867,-8.0452,-8.0346,-8.0661,-8.0657,-8.0655,-8.0653,-8.0652,-8.0422,-8.0315,-8.0586,-8.069,-8.0879,-8.1053,-8.1061,-8.1265,-8.1349,-8.145,-8.1392,-8.1083,-8.1059,-8.1026,-8.0939,-8.1388,-8.1388,-8.1388,-8.1388,-8.067,-8.0659,-8.0936,-8.1101,-8.1264,-8.1298,-8.1599,-8.1684,-8.1754,-8.1807,-8.1743,-8.1628,-8.1594,-8.159,-8.1545,-8.1464,-8.2036,-8.2037,-8.2037,-8.0965,-8.0969,-8.1226,-8.1296,-8.1445,-8.157,-8.1853,-8.2041,-8.2098,-8.2064,-8.1848,-8.1821,-8.1636,-8.1575,-8.1535,-8.1465,-8.1317,0,0]}]]